When you browse on this site, cookies collect data to enhance your experience and personalize the content and advertising you see.
Visit our Privacy Policy to learn more. By continuing to use the site, you agree to this use of cookies and data.
  • In United Kingdom
  • List of Countries
  • For 7 days
  • Water Temperature
  • Weather Map
  • Weather Widgets
  • user-avatar
    Login

    Hourly Weather Tyrgowishte

    Today, 20 January, Monday

    Time Temperature Precipitation Wind Pressure Humidity
    00:00 -1°C° 0 mm 2 mps 756 mmHg 85%
    01:00 -1°C° 0 mm 2 mps 756 mmHg 86%
    02:00 -2°C° 0 mm 2 mps 757 mmHg 87%
    03:00 -2°C° 0 mm 3 mps 757 mmHg 88%
    04:00 -2°C° 0 mm 3 mps 757 mmHg 89%
    05:00 -2°C° 0 mm 3 mps 757 mmHg 91%
    06:00 -2°C° 0.1 mm 3 mps 758 mmHg 90%
    07:00 -2°C° 0.1 mm 3 mps 758 mmHg 89%
    08:00 -3°C° 0.1 mm 4 mps 759 mmHg 88%
    09:00 -2°C° 0 mm 4 mps 759 mmHg 82%
    10:00 -2°C° 0 mm 4 mps 760 mmHg 76%
    11:00 -1°C° 0 mm 5 mps 760 mmHg 70%
    12:00 -1°C° 0 mm 5 mps 760 mmHg 69%
    13:00 -1°C° 0 mm 5 mps 760 mmHg 68%
    14:00 -1°C° 0 mm 4 mps 760 mmHg 67%
    15:00 -1°C° 0 mm 4 mps 761 mmHg 69%
    16:00 0°C° 0 mm 3 mps 761 mmHg 70%
    17:00 0°C° 0 mm 3 mps 761 mmHg 71%
    18:00 -1°C° 0 mm 3 mps 761 mmHg 75%
    19:00 -1°C° 0 mm 3 mps 761 mmHg 78%
    20:00 -2°C° 0 mm 3 mps 762 mmHg 81%
    21:00 -2°C° 0 mm 3 mps 762 mmHg 81%
    22:00 -2°C° 0 mm 3 mps 762 mmHg 82%
    23:00 -2°C° 0 mm 3 mps 762 mmHg 82%

    Tomorrow, 21 January, Tuesday

    Time Temperature Precipitation Wind Pressure Humidity
    00:00 -2°C° 0 mm 3 mps 762 mmHg 83%
    01:00 -2°C° 0 mm 3 mps 762 mmHg 84%
    02:00 -2°C° 0 mm 3 mps 762 mmHg 84%
    03:00 -2°C° 0 mm 3 mps 762 mmHg 85%
    04:00 -4°C° 0 mm 3 mps 762 mmHg 85%
    05:00 -4°C° 0 mm 3 mps 761 mmHg 86%
    06:00 -4°C° 0 mm 3 mps 761 mmHg 86%
    07:00 -4°C° 0 mm 3 mps 761 mmHg 86%
    08:00 -3°C° 0 mm 2 mps 761 mmHg 86%
    09:00 -2°C° 0 mm 3 mps 761 mmHg 80%
    10:00 0°C° 0 mm 3 mps 761 mmHg 73%
    11:00 0°C° 0 mm 4 mps 761 mmHg 67%
    12:00 +1°C° 0 mm 4 mps 760 mmHg 64%
    13:00 +1°C° 0 mm 4 mps 760 mmHg 62%
    14:00 +3°C° 0 mm 4 mps 759 mmHg 59%
    15:00 +2°C° 0 mm 3 mps 759 mmHg 64%
    16:00 +1°C° 0 mm 3 mps 759 mmHg 68%
    17:00 +1°C° 0 mm 2 mps 758 mmHg 72%
    18:00 +1°C° 0 mm 2 mps 758 mmHg 74%
    19:00 -1°C° 0 mm 2 mps 758 mmHg 76%
    20:00 -1°C° 0 mm 2 mps 758 mmHg 78%
    21:00 -1°C° 0 mm 2 mps 758 mmHg 77%
    22:00 -1°C° 0 mm 2 mps 757 mmHg 76%
    23:00 -1°C° 0 mm 2 mps 757 mmHg 76%

    Day after tomorrow, 22 January, Wednesday

    Time Temperature Precipitation Wind Pressure Humidity
    00:00 -1°C° 0 mm 2 mps 757 mmHg 75%
    01:00 -1°C° 0 mm 2 mps 757 mmHg 74%
    02:00 -1°C° 0 mm 2 mps 756 mmHg 74%
    03:00 -1°C° 0 mm 2 mps 756 mmHg 74%
    04:00 -1°C° 0 mm 2 mps 755 mmHg 74%
    05:00 -1°C° 0 mm 2 mps 755 mmHg 74%
    06:00 -1°C° 0 mm 2 mps 754 mmHg 73%
    07:00 -1°C° 0 mm 2 mps 754 mmHg 72%
    08:00 -1°C° 0 mm 2 mps 754 mmHg 71%
    09:00 +2°C° 0 mm 2 mps 754 mmHg 62%
    10:00 +4°C° 0 mm 2 mps 753 mmHg 54%
    11:00 +4°C° 0 mm 3 mps 753 mmHg 46%
    12:00 +5°C° 0 mm 3 mps 752 mmHg 43%
    13:00 +7°C° 0 mm 3 mps 751 mmHg 41%
    14:00 +7°C° 0 mm 4 mps 751 mmHg 38%
    15:00 +7°C° 0 mm 3 mps 750 mmHg 42%
    16:00 +5°C° 0 mm 3 mps 749 mmHg 46%
    17:00 +3°C° 0 mm 3 mps 748 mmHg 50%
    18:00 +3°C° 0 mm 3 mps 748 mmHg 50%
    19:00 +2°C° 0 mm 3 mps 748 mmHg 50%
    20:00 +2°C° 0 mm 3 mps 748 mmHg 51%
    21:00 +2°C° 0 mm 3 mps 747 mmHg 51%
    22:00 +2°C° 0 mm 3 mps 747 mmHg 51%
    23:00 +1°C° 0 mm 4 mps 747 mmHg 51%

    23 January, Thursday

    Time Temperature Precipitation Wind Pressure Humidity
    00:00 0°C° 0 mm 4 mps 747 mmHg 52%
    01:00 0°C° 0 mm 4 mps 747 mmHg 53%
    02:00 -1°C° 0 mm 5 mps 747 mmHg 54%
    03:00 -1°C° 0 mm 4 mps 748 mmHg 60%
    04:00 -1°C° 0 mm 3 mps 748 mmHg 66%
    05:00 -1°C° 0 mm 3 mps 749 mmHg 72%
    06:00 -2°C° 0 mm 2 mps 749 mmHg 74%
    07:00 -2°C° 0 mm 2 mps 750 mmHg 76%
    08:00 -2°C° 0 mm 2 mps 751 mmHg 78%
    09:00 +1°C° 0 mm 2 mps 752 mmHg 71%
    10:00 +1°C° 0 mm 3 mps 752 mmHg 65%
    11:00 +2°C° 0 mm 3 mps 753 mmHg 58%
    12:00 +3°C° 0 mm 3 mps 753 mmHg 56%
    13:00 +4°C° 0 mm 3 mps 753 mmHg 54%
    14:00 +4°C° 0 mm 3 mps 753 mmHg 52%
    15:00 +3°C° 0 mm 3 mps 753 mmHg 57%
    16:00 +4°C° 0 mm 2 mps 753 mmHg 62%
    17:00 +3°C° 0 mm 2 mps 753 mmHg 67%
    18:00 +2°C° 0 mm 2 mps 754 mmHg 70%
    19:00 +2°C° 0 mm 1 mps 754 mmHg 72%
    20:00 +2°C° 0 mm 1 mps 755 mmHg 75%
    21:00 +2°C° 0 mm 1 mps 755 mmHg 75%
    22:00 +1°C° 0 mm 1 mps 756 mmHg 75%
    23:00 +1°C° 0 mm 1 mps 757 mmHg 76%

    24 January, Friday

    Time Temperature Precipitation Wind Pressure Humidity
    00:00 +1°C° 0 mm 1 mps 757 mmHg 76%
    01:00 +1°C° 0 mm 1 mps 757 mmHg 75%
    02:00 0°C° 0 mm 1 mps 757 mmHg 75%
    03:00 0°C° 0 mm 1 mps 756 mmHg 75%
    04:00 0°C° 0 mm 1 mps 756 mmHg 74%
    05:00 0°C° 0 mm 1 mps 756 mmHg 74%
    06:00 0°C° 0 mm 1 mps 756 mmHg 74%
    07:00 0°C° 0 mm 1 mps 756 mmHg 74%
    08:00 -2°C° 0 mm 2 mps 756 mmHg 74%
    09:00 -1°C° 0 mm 2 mps 756 mmHg 68%
    10:00 +2°C° 0 mm 2 mps 756 mmHg 62%
    11:00 +3°C° 0 mm 2 mps 756 mmHg 56%
    12:00 +4°C° 0 mm 2 mps 755 mmHg 53%
    13:00 +5°C° 0 mm 2 mps 755 mmHg 50%
    14:00 +7°C° 0 mm 1 mps 754 mmHg 46%
    15:00 +6°C° 0 mm 1 mps 754 mmHg 52%
    16:00 +5°C° 0 mm 1 mps 753 mmHg 57%
    17:00 +4°C° 0 mm 1 mps 753 mmHg 62%
    18:00 +3°C° 0 mm 1 mps 753 mmHg 65%
    19:00 +3°C° 0 mm 1 mps 752 mmHg 68%
    20:00 +2°C° 0 mm 1 mps 752 mmHg 72%
    21:00 +2°C° 0 mm 1 mps 752 mmHg 72%
    22:00 +2°C° 0 mm 1 mps 752 mmHg 72%
    23:00 +1°C° 0 mm 1 mps 752 mmHg 73%

    25 January, Saturday

    Time Temperature Precipitation Wind Pressure Humidity
    00:00 +1°C° 0 mm 1 mps 751 mmHg 73%
    01:00 +1°C° 0 mm 1 mps 750 mmHg 73%
    02:00 +1°C° 0 mm 1 mps 750 mmHg 73%
    03:00 +1°C° 0 mm 1 mps 750 mmHg 72%
    04:00 +1°C° 0 mm 1 mps 749 mmHg 72%
    05:00 +1°C° 0 mm 1 mps 749 mmHg 71%
    06:00 +2°C° 0 mm 1 mps 749 mmHg 69%
    07:00 +2°C° 0 mm 1 mps 749 mmHg 67%
    08:00 +2°C° 0 mm 1 mps 749 mmHg 65%
    09:00 +4°C° 0 mm 1 mps 749 mmHg 57%
    10:00 +6°C° 0 mm 1 mps 749 mmHg 49%
    11:00 +9°C° 0 mm 1 mps 749 mmHg 41%
    12:00 +10°C° 0 mm 1 mps 748 mmHg 40%
    13:00 +10°C° 0 mm 1 mps 748 mmHg 39%
    14:00 +11°C° 0 mm 1 mps 747 mmHg 38%
    15:00 +10°C° 0 mm 1 mps 747 mmHg 42%
    16:00 +9°C° 0 mm 1 mps 747 mmHg 46%
    17:00 +8°C° 0 mm 1 mps 747 mmHg 51%
    18:00 +7°C° 0 mm 1 mps 747 mmHg 51%
    19:00 +7°C° 0 mm 1 mps 747 mmHg 51%
    20:00 +6°C° 0 mm 2 mps 747 mmHg 51%
    21:00 +7°C° 0 mm 1 mps 747 mmHg 51%
    22:00 +7°C° 0 mm 1 mps 747 mmHg 52%
    23:00 +7°C° 0 mm 1 mps 747 mmHg 53%
    Show more